Location: Newark
(29.9790°N, 31.1340°E)
Time: 08:35:24
(UTC+00:00)

S-56A Canister/Altair - Visible Passes

Search period start: 20 January 2020 00:00
Search period end: 30 January 2020 00:00
Orbit: 634 x 2498 km, 38.9° (Epoch: 19 January)

Date Brightness Start Highest point End Pass type
(mag) Time Alt. Az. Time Alt. Az. Time Alt. Az.
20 Jan 9.1 02:15:38 37° S 02:15:38 37° S 02:21:23 10° SE visible
20 Jan 10.4 04:17:15 10° SW 04:18:36 10° SW 04:20:00 10° SSW visible
20 Jan 8.8 17:18:28 10° SSW 17:24:27 32° SSE 17:24:27 32° SSE visible
21 Jan 9.8 01:45:00 24° SSE 01:45:00 24° SSE 01:48:14 10° SE visible
21 Jan 10.1 03:43:14 10° SW 03:45:41 12° SW 03:48:25 10° SSW visible
21 Jan 9.0 16:45:32 10° SSW 16:52:00 28° SSE 16:53:48 24° ESE visible
21 Jan 10.3 18:49:49 10° WSW 18:51:15 17° WSW 18:51:15 17° WSW visible
22 Jan 10.6 01:14:22 13° SE 01:14:22 13° SE 01:15:09 10° SE visible
22 Jan 10.0 03:11:49 13° SW 03:12:49 13° SW 03:16:15 10° S visible
22 Jan 9.4 16:12:36 10° SSW 16:19:12 26° SSE 16:23:09 14° E visible
22 Jan 9.2 18:16:36 10° WSW 18:20:36 34° WSW 18:20:36 34° WSW visible
23 Jan 10.1 02:41:12 14° SSW 02:41:12 14° SSW 02:43:52 10° S visible
23 Jan 9.8 15:39:40 10° SSW 15:46:22 23° SE 15:51:26 10° E visible
23 Jan 8.0 17:43:20 10° WSW 17:49:56 69° SW 17:49:56 69° SW visible
24 Jan 10.3 02:10:35 12° S 02:10:35 12° S 02:11:23 10° S visible
24 Jan 7.8 17:10:01 10° SW 17:18:02 74° SSE 17:19:15 57° E visible
24 Jan 10.7 19:16:41 10° W 19:16:42 10° W 19:16:42 10° W visible
25 Jan 8.3 16:36:40 10° SW 16:45:17 65° SSE 16:48:32 29° ENE visible
25 Jan 10.0 18:43:20 10° W 18:45:58 22° WNW 18:45:58 22° WNW visible
26 Jan 8.7 16:03:16 10° SW 16:12:29 58° SSE 16:17:49 14° ENE visible
26 Jan 9.0 18:09:53 10° W 18:15:15 40° WNW 18:15:15 40° WNW visible
27 Jan 8.2 17:36:21 10° W 17:44:04 56° NNW 17:44:29 55° N visible
28 Jan 8.4 17:02:45 10° WSW 17:11:18 64° NNW 17:13:43 38° NE visible
28 Jan 10.6 19:10:28 10° WNW 19:11:09 12° WNW 19:11:09 12° WNW visible
29 Jan 8.5 16:29:05 10° WSW 16:38:29 72° NNW 16:42:55 21° ENE visible
29 Jan 9.8 18:37:03 10° WNW 18:40:21 24° NW 18:40:21 24° NW visible
